Wappingers Falls, NY

6:44 PM EST on January 22, 2017 (GMT -0500)
Dutchess County

Weather History for KPOU - August, 2014

Change the Weather History Date:

Thursday, August 14, 2014

  Actual Average Record
Temperature  
Mean Temperature 67 °F 72 °F  
Max Temperature 77 °F 83 °F 96 °F (2002)
Min Temperature 57 °F 60 °F 44 °F (1961)
Degree Days  
Heating Degree Days 0 0  
Month to date heating degree days 0 0  
Since 1 June heating degree days 7 54  
Since 1 July heating degree days 0 5  
Cooling Degree Days 2 7  
Month to date cooling degree days 85 105  
Year to date cooling degree days 521 508  
Since 1 June cooling degree days 488 472  
Growing Degree Days 16 (Base 50)    
Moisture  
Dew Point 54 °F    
Average Humidity 66    
Maximum Humidity 93    
Minimum Humidity 38    
Precipitation  
Precipitation 0.06 in 0.13 in 0.76 in (2011)
Month to date precipitation 2.74 2.05  
Year to date precipitation 24.03 28.63  
Sea Level Pressure  
Sea Level Pressure 29.81 in    
Wind  
Wind Speed 5 mph (West)    
Max Wind Speed 13 mph    
Max Gust Speed 18 mph    
Visibility 10 miles    
Events Rain    
T = Trace of Precipitation, MM = Missing Value Source: NWS Daily Summary

Daily Weather History Graph

Daily Weather History Graph

Search for Another Location

Airport or City:

Trip Planner

Search our weather history database for the weather conditions in past years. The results will help you decide how hot, cold, wet, or windy it might be!

Date:

Astronomy

Aug. 14, 2014 Rise Set
Actual Time 6:03 AM EDT 7:56 PM EDT
Civil Twilight 5:33 AM EDT 8:26 PM EDT
Nautical Twilight 4:56 AM EDT 9:02 PM EDT
Astronomical Twilight 4:16 AM EDT 9:42 PM EDT
Moon 10:13 PM EDT (8/14) 10:41 AM EDT (8/14)
Length of Visible Light 14h 53m
Length of Day
13h 53m
Waning Gibbous, 79% of the Moon is Illuminated
Aug 14
Waning Gibbous
Aug 17
Last Quarter
Aug 25
New
Sep 2
First Quarter
Sep 8
Full

Hourly Weather History & Observations

Time (EDT) Temp. Dew Point Humidity Pressure Visibility Wind Dir Wind Speed Gust Speed Precip Events Conditions
12:53 AM 68.0 °F 60.1 °F 76% 29.76 in 10.0 mi WNW 6.9 mph - N/A   Overcast
1:53 AM 64.9 °F 59.0 °F 81% 29.75 in 10.0 mi West 6.9 mph - N/A   Partly Cloudy
2:53 AM 62.1 °F 59.0 °F 90% 29.75 in 10.0 mi East 3.5 mph - N/A   Clear
3:53 AM 63.0 °F 57.0 °F 81% 29.76 in 10.0 mi Calm Calm - N/A   Overcast
4:53 AM 61.0 °F 57.0 °F 87% 29.77 in 10.0 mi Calm Calm - N/A   Mostly Cloudy
5:53 AM 57.9 °F 55.9 °F 93% 29.80 in 10.0 mi Calm Calm - N/A   Clear
6:53 AM 57.9 °F 54.0 °F 87% 29.82 in 10.0 mi Calm Calm - N/A   Clear
7:53 AM 63.0 °F 51.1 °F 65% 29.84 in 10.0 mi SSW 4.6 mph - N/A   Clear
8:53 AM 64.0 °F 50.0 °F 60% 29.85 in 10.0 mi WSW 9.2 mph - N/A   Clear
9:53 AM 66.0 °F 51.1 °F 59% 29.85 in 10.0 mi Calm Calm - N/A   Clear
10:53 AM 69.1 °F 51.1 °F 53% 29.84 in 10.0 mi WSW 11.5 mph 17.3 mph N/A   Scattered Clouds
11:53 AM 70.0 °F 51.1 °F 51% 29.83 in 10.0 mi WNW 8.1 mph 18.4 mph N/A   Overcast
12:53 PM 75.0 °F 51.1 °F 43% 29.83 in 10.0 mi NW 12.7 mph - N/A   Mostly Cloudy
1:53 PM 73.9 °F 48.9 °F 41% 29.81 in 10.0 mi West 9.2 mph - N/A   Partly Cloudy
2:53 PM 73.9 °F 48.0 °F 40% 29.81 in 10.0 mi West 10.4 mph - N/A   Scattered Clouds
3:53 PM 75.0 °F 48.0 °F 38% 29.80 in 10.0 mi WNW 9.2 mph - N/A   Scattered Clouds
4:53 PM 75.0 °F 48.0 °F 38% 29.80 in 10.0 mi WSW 4.6 mph - N/A   Mostly Cloudy
5:53 PM 73.9 °F 48.9 °F 41% 29.80 in 10.0 mi NW 4.6 mph - N/A   Mostly Cloudy
6:53 PM 73.0 °F 51.1 °F 46% 29.80 in 10.0 mi West 5.8 mph - N/A   Overcast
7:53 PM 66.9 °F 55.0 °F 66% 29.80 in 10.0 mi South 3.5 mph - N/A   Clear
8:53 PM 64.0 °F 57.0 °F 78% 29.82 in 10.0 mi NNE 3.5 mph - N/A   Overcast
9:53 PM 64.0 °F 57.9 °F 80% 29.84 in 10.0 mi NW 5.8 mph - N/A   Overcast
10:53 PM 62.1 °F 57.9 °F 86% 29.87 in 10.0 mi NE 3.5 mph - 0.06 in Rain Light Rain
11:53 PM 60.1 °F 57.9 °F 93% 29.88 in 10.0 mi Calm Calm - 0.00 in   Partly Cloudy